TimeMST,TemperatureF,Dew PointF,Humidity,Sea Level PressureIn,VisibilityMPH,Wind Direction,Wind SpeedMPH,Gust SpeedMPH,PrecipitationIn,Events,Conditions,WindDirDegrees,DateUTC
12:53 AM,17.1,15.1,92,30.29,10.0,Calm,Calm,-,N/A,,Clear,0,2013-12-30 07:53:00
1:53 AM,18.0,15.1,88,30.29,10.0,Variable,4.6,-,N/A,,Clear,0,2013-12-30 08:53:00
2:53 AM,16.0,14.0,92,30.31,10.0,Calm,Calm,-,N/A,,Clear,0,2013-12-30 09:53:00
3:53 AM,15.1,12.0,88,30.32,10.0,NE,4.6,-,N/A,,Clear,40,2013-12-30 10:53:00
4:53 AM,15.1,12.0,88,30.34,10.0,NNE,4.6,-,N/A,,Clear,20,2013-12-30 11:53:00
5:53 AM,12.9,10.9,92,30.38,10.0,Calm,Calm,-,N/A,,Clear,0,2013-12-30 12:53:00
6:53 AM,14.0,10.0,84,30.39,10.0,Calm,Calm,-,N/A,,Clear,0,2013-12-30 13:53:00
7:53 AM,14.0,10.9,88,30.44,10.0,Calm,Calm,-,N/A,,Clear,0,2013-12-30 14:53:00
8:53 AM,19.9,16.0,85,30.45,10.0,East,3.5,-,N/A,,Clear,100,2013-12-30 15:53:00
9:53 AM,25.0,18.0,75,30.47,10.0,ENE,6.9,-,N/A,,Clear,70,2013-12-30 16:53:00
10:53 AM,27.0,17.1,66,30.47,10.0,East,6.9,-,N/A,,Clear,90,2013-12-30 17:53:00
11:53 AM,30.9,18.0,59,30.43,10.0,Calm,Calm,-,N/A,,Clear,0,2013-12-30 18:53:00
12:53 PM,35.1,18.0,50,30.40,10.0,North,3.5,-,N/A,,Clear,10,2013-12-30 19:53:00
1:53 PM,35.1,18.0,50,30.39,10.0,WSW,3.5,-,N/A,,Clear,250,2013-12-30 20:53:00
2:53 PM,37.0,17.1,44,30.38,10.0,Calm,Calm,-,N/A,,Clear,0,2013-12-30 21:53:00
3:53 PM,39.0,15.1,38,30.38,10.0,West,3.5,-,N/A,,Clear,260,2013-12-30 22:53:00
4:53 PM,35.1,16.0,46,30.41,10.0,WSW,3.5,-,N/A,,Clear,250,2013-12-30 23:53:00
5:53 PM,32.0,14.0,48,30.44,10.0,Calm,Calm,-,N/A,,Clear,0,2013-12-31 00:53:00
6:53 PM,28.0,15.1,58,30.48,10.0,Calm,Calm,-,N/A,,Clear,0,2013-12-31 01:53:00
7:53 PM,23.0,18.0,81,30.53,10.0,NE,5.8,-,N/A,,Clear,50,2013-12-31 02:53:00
8:53 PM,24.1,17.1,75,30.50,10.0,ENE,3.5,-,N/A,,Clear,60,2013-12-31 03:53:00
9:53 PM,21.0,16.0,81,30.50,10.0,NE,3.5,-,N/A,,Clear,40,2013-12-31 04:53:00
10:53 PM,21.0,15.1,78,30.49,10.0,North,3.5,-,N/A,,Clear,360,2013-12-31 05:53:00
11:53 PM,19.0,15.1,85,30.47,10.0,NE,3.5,-,N/A,,Clear,50,2013-12-31 06:53:00